COSMOS 1801

Satellite information

Favourite Embed

Satellite Type and Status

PAYLOADIN ORBIT

Key statistics

Satellite COSMOS 1801 at a glance.

Uptime

14109

Days in orbit

Revolutions

≈ 12.6

Per day

Orbit

LEO

Low Earth Orbit

Inclination

74.0

Latest

Satellite identification and parameters

Extended collection of information and parameters for COSMOS 1801.

Object identification

Identified? True

Debris? False

Object name: COSMOS 1801

International designator: 1986-092H

Object number (NORAD): 17145

Object ID (CCSDS): 17145

Country: COMMONWEALTH OF INDEPENDENT STATES (CIS)

Current information (Y/N): Y

RCS size: MEDIUM

Orbital parameters

Period: 114.39 minutes

Inclination: 74.0137 deg

SMA: 7805.843 km

Apoapsis: 1470.364 km

Periapsis: 1385.053 km

RAAN: 102.2534 deg

Eccentricy: 0.0054646

Argument of periapsis: 170.4175 deg

Mean anomaly: 262.3214 deg

Mean motion: 12.58847192 rev/day

Mean motion (dot): -0.00000026 rev/day2

B* drag term: -0.000054876 1/REarth

Two-line elements (TLE)

Creation date: July 8, 2025, 2:27 a.m.

Reference frame: TEME

Reference center: EARTH

Epoch: July 7, 2025, 10:22 p.m. UTC

TLE line 0: 0 COSMOS 1801

TLE line 1: 1 17145U 86092H 25188.93257089 -.00000026 00000-0 -54876-4 0 9994

TLE line 2: 2 17145 74.0137 102.2534 0054646 170.4175 262.3214 12.58847192775117

Live tracking on map

Real-time ground track for satellite COSMOS 1801.

In-orbit conjunctions

A list of the most updated potential collisions computed for object COSMOS 1801.

Target Orbit TCA Probability of collision Miss distance Type
THORAD DELTA 1 DEB SSO 2024-07-03 08:10:38 0.0002623341 533.0 (m) DEBRIS

Associated space launch

Military communications satellites

COSMOS 1801 was lifted into orbit during the mission ‘Kosmos-3M | Strela-1M 313-320’, on board a Kosmos-3M space rocket.

The launch took place on Nov. 21, 1986, 2 a.m. from 132/2.

For more information about the launch, click the button.

Launch to space Kosmos-3M | Strela-1M 313-320
Kosmos-3M | Strela-1M 313-320

Agency: N/A

Status: Launch Successful

Launch date: Nov. 21, 1986, 2 a.m. UTC

Rocket: Kosmos-3M

Launch pad: 132/2

Location: Plesetsk Cosmodrome, Russian Federation

...

Latest news about this satellite

There are no fresh news available about this satellite. Check back as we update our databases every day.


Newsletter sign-up

Weekly statistics, charts and insights to help you stay on top of the space industry.